Theta_e
319 320 318 318 317 316 315 315 312 311 310 309 310 309 306 305 305 303 300 299 294 293 294 294 292 292 293 293 293 292 292 292 296 297 297 296 297 302 315 319 324 324 326 327 327 325 326 325 325 323 323 322 322 322 322 322 322 322 321 321 320 320 319 318 317 318 318 318 319 319 319 319 320 319 320 320 320 320 320 319 320 321 321 321 323
318 317 317 317 316 316 315 315 314 312 310 310 308 309 307 303 302 303 301 299 296 295 294 294 293 293 292 293 293 294 292 292 294 296 296 296 296 299 311 315 320 324 325 326 326 325 326 326 324 324 323 323 322 321 321 321 321 321 321 320 320 319 318 317 317 317 317 318 318 318 318 319 319 318 319 319 318 319 319 319 319 319 319 319 319
318 316 316 315 314 314 314 312 312 311 310 311 307 308 306 306 304 302 301 299 297 293 294 294 293 293 293 293 294 292 293 292 294 295 296 297 295 297 301 311 316 319 322 324 325 325 326 326 325 325 324 323 323 322 321 320 320 320 320 320 320 319 318 318 317 317 317 318 318 318 318 318 318 318 317 317 317 317 317 317 318 318 318 319 319
319 316 315 313 312 312 311 311 311 309 309 309 307 306 306 304 301 300 298 297 296 293 293 293 292 294 292 293 291 292 292 292 294 296 296 295 295 296 297 301 311 316 319 323 324 325 326 325 325 325 324 324 323 323 322 321 320 320 321 320 320 319 319 318 317 317 317 317 318 317 317 317 317 317 316 316 316 317 317 317 317 317 317 317 318
318 317 314 313 312 311 310 310 311 310 309 307 306 303 301 299 298 296 295 293 293 293 292 291 292 292 292 293 291 292 292 292 294 296 297 297 296 296 295 298 299 310 313 317 322 322 324 324 325 325 325 324 324 323 323 321 320 321 321 321 320 320 319 318 317 317 317 318 317 317 316 316 316 316 316 316 316 316 316 316 316 316 316 316 316
316 314 314 313 311 311 310 309 309 308 308 307 306 302 302 299 298 294 296 294 293 292 291 291 290 290 292 292 291 293 292 292 291 296 296 297 297 295 296 295 296 298 302 312 315 321 322 323 323 324 324 323 323 323 323 322 321 321 321 321 321 320 320 319 318 318 318 318 317 317 316 316 316 315 315 315 314 314 314 314 315 315 315 315 316
316 315 313 313 311 309 309 310 308 307 307 306 307 303 302 300 295 295 292 291 291 291 291 291 290 292 292 292 291 292 290 292 291 293 295 296 296 295 297 296 295 296 298 299 307 314 321 322 322 322 324 323 323 323 323 322 321 321 322 322 321 321 320 319 318 318 318 318 317 316 316 316 315 315 314 314 314 314 314 314 314 314 315 315 315
315 314 313 312 311 310 310 308 307 306 306 304 304 303 300 299 296 295 292 291 290 290 289 290 290 291 291 291 291 291 290 291 291 292 295 295 295 296 297 297 296 295 298 295 298 304 315 319 321 321 322 322 323 323 323 322 321 321 321 322 321 321 320 319 319 319 318 317 316 316 315 315 315 315 314 314 313 314 314 314 314 314 314 314 315
314 313 314 312 311 311 308 308 306 306 305 303 303 303 300 299 295 293 294 293 290 289 289 289 290 290 289 289 289 290 290 291 291 291 291 292 293 294 296 296 296 300 296 297 298 298 308 314 318 321 322 321 321 322 322 322 322 321 321 321 321 321 320 319 319 318 318 316 316 315 315 314 315 315 314 314 314 313 314 314 314 313 313 314 314
313 312 312 312 312 311 309 307 305 305 304 302 302 300 298 298 297 293 292 292 290 290 289 288 289 290 289 289 289 288 289 290 291 293 290 290 292 293 294 296 296 296 296 295 295 296 297 306 313 314 311 314 319 321 322 321 322 321 321 321 320 320 319 319 318 318 317 315 315 315 314 314 315 314 314 313 313 313 313 313 313 313 313 313 314
312 311 312 311 310 309 308 307 305 304 303 301 299 296 295 295 297 294 290 291 291 290 290 289 289 289 289 288 287 288 289 289 291 290 289 290 291 293 291 293 295 296 295 293 293 294 296 297 298 297 298 309 316 319 320 321 321 320 320 321 321 320 319 317 318 317 316 315 315 314 314 314 314 314 313 313 313 313 313 313 313 313 313 313 313
311 311 311 309 308 307 307 306 305 304 303 300 299 296 296 294 294 294 292 290 289 288 287 288 288 287 287 288 287 286 287 288 289 290 290 289 289 290 290 291 292 293 293 294 293 293 295 295 294 295 294 302 311 316 318 319 318 319 320 320 321 320 319 316 317 317 315 314 314 314 314 314 313 313 313 313 313 313 312 312 312 312 313 312 313
309 309 310 308 308 306 305 303 304 304 302 302 301 299 298 297 296 294 294 290 288 286 287 289 287 287 285 285 287 286 288 289 288 289 289 288 287 290 290 289 289 292 293 293 291 291 292 294 294 294 295 294 301 308 314 317 312 315 319 320 320 320 319 318 316 315 314 314 314 314 314 313 312 312 312 313 313 313 313 312 312 312 312 312 312
307 308 307 307 307 305 304 304 302 302 301 300 300 298 296 295 294 293 292 292 290 288 288 290 286 285 285 284 285 286 287 287 288 288 288 288 288 289 289 289 288 289 291 290 290 290 291 291 292 292 293 294 296 298 302 307 308 314 319 320 321 320 319 318 317 316 315 314 313 313 313 313 312 313 313 312 312 312 312 312 312 312 312 312 312
305 305 307 306 305 304 303 301 300 300 299 299 298 297 296 295 294 295 292 290 289 287 288 290 286 284 282 283 281 284 286 287 287 288 288 288 288 288 289 288 289 288 288 289 289 289 289 288 289 290 290 292 294 294 297 300 299 305 314 316 317 319 319 318 317 316 315 314 313 313 313 312 312 312 312 312 312 312 312 312 312 312 312 312 312
300 301 303 304 304 303 301 299 299 299 299 298 297 296 295 294 293 293 294 292 289 289 289 290 287 286 283 285 281 281 280 284 287 286 288 288 288 288 287 289 288 287 287 288 288 288 288 287 287 288 289 290 292 293 294 295 299 302 304 307 311 315 319 318 318 317 316 315 313 313 313 312 312 312 312 312 311 311 312 312 312 311 311 312 312
298 298 299 299 298 299 300 299 298 297 297 297 296 297 297 296 295 294 292 294 292 290 288 289 288 289 287 281 280 281 281 281 281 283 283 287 287 287 288 288 288 288 287 287 287 288 288 287 287 286 287 287 289 291 292 293 295 296 298 300 303 309 312 320 319 317 317 316 315 313 313 312 312 311 312 312 312 312 312 311 311 312 312 312 312
295 297 296 297 297 297 297 298 295 295 295 296 297 296 295 295 294 294 293 293 294 292 289 289 290 289 287 285 285 284 283 281 284 282 281 285 286 287 287 287 287 287 287 287 287 287 288 288 287 287 287 287 287 288 289 291 292 293 293 296 304 308 309 312 319 319 317 317 316 314 313 312 312 312 312 312 312 312 312 311 311 312 311 311 311
298 296 296 294 295 294 295 296 295 293 292 293 294 295 296 295 295 294 294 294 292 291 290 290 289 289 289 288 286 284 282 284 282 283 282 283 283 285 286 286 286 286 287 287 288 287 287 288 288 288 287 287 287 287 287 288 293 294 298 301 307 309 310 311 313 317 318 317 317 315 314 313 312 312 312 312 312 312 312 311 311 311 311 311 311
296 296 296 296 295 295 293 293 294 293 292 292 293 293 293 294 294 294 294 293 292 291 291 290 289 289 290 289 288 288 284 283 283 283 283 283 283 282 282 284 285 285 286 287 288 287 287 287 288 287 287 287 287 287 286 286 287 290 293 301 306 309 310 312 312 311 314 316 317 316 315 314 313 313 312 312 312 312 312 311 311 311 311 311 311
293 294 294 294 294 295 294 294 293 294 292 291 290 290 290 290 291 292 292 292 292 292 292 291 289 290 289 288 288 288 288 286 284 283 284 281 284 282 283 282 283 284 286 287 288 287 288 288 288 288 287 287 287 287 287 286 286 287 292 298 305 308 309 311 312 312 311 313 315 315 315 315 314 314 313 313 312 312 312 311 311 311 310 310 311
292 292 292 292 292 293 293 294 293 293 292 291 290 289 289 288 289 290 291 292 293 292 291 292 291 291 290 291 289 287 285 285 284 284 284 284 284 284 281 282 283 285 287 287 287 288 288 288 287 287 288 288 288 287 287 287 287 287 289 296 301 305 307 309 311 312 312 313 313 313 314 314 314 314 313 313 313 312 312 311 311 311 310 310 310
290 290 291 291 291 291 291 292 292 292 292 292 292 292 291 290 289 288 288 289 289 291 291 292 291 291 290 290 289 289 288 287 285 284 285 285 284 284 283 283 284 284 284 287 288 288 288 286 286 287 288 288 288 287 287 287 289 289 292 295 298 301 305 308 310 311 312 313 313 313 312 312 312 313 314 313 312 312 312 311 311 311 311 310 309
289 289 289 290 290 290 290 290 291 292 292 293 293 292 291 289 289 288 288 287 287 288 288 289 290 290 290 290 290 290 290 289 288 286 285 286 286 286 285 281 282 283 283 282 285 287 287 287 287 287 288 288 288 287 288 288 288 291 291 293 298 300 305 308 310 310 312 312 312 311 311 311 311 311 311 312 312 312 312 312 311 311 311 311 310
287 287 288 288 288 288 289 289 289 290 291 291 291 291 290 290 290 288 288 287 288 287 287 287 288 288 289 290 290 290 289 290 289 288 287 287 286 286 286 281 285 284 281 283 283 283 287 287 287 287 287 287 288 287 287 288 287 290 292 290 296 299 301 304 308 311 310 310 310 310 310 311 311 311 311 311 312 312 311 311 311 311 311 311 311
286 287 288 288 287 287 287 288 288 288 289 289 289 289 289 289 289 289 288 289 287 286 287 286 287 287 288 287 287 288 289 289 289 288 287 286 285 285 286 284 281 283 281 280 280 283 283 286 287 288 287 287 287 287 287 287 287 291 292 290 292 297 299 301 306 310 309 309 309 309 308 308 309 309 309 310 311 312 312 311 312 312 312 312 311
286 287 287 287 287 287 287 287 287 287 287 287 288 288 288 288 288 288 288 288 287 286 286 285 286 286 286 286 286 286 287 287 287 288 288 287 287 287 285 284 285 284 283 282 280 282 285 281 286 287 287 287 287 287 287 287 288 290 291 290 288 293 298 301 305 309 309 308 308 307 306 306 306 307 307 307 308 309 311 311 311 311 311 311 311
286 286 286 286 286 286 286 286 287 287 287 287 286 286 286 286 286 286 286 288 286 285 286 285 285 285 285 286 285 285 286 286 285 286 286 287 287 287 286 286 284 283 284 284 283 283 283 284 283 286 287 287 287 287 288 288 287 291 290 289 288 289 295 300 304 307 310 308 307 306 305 304 304 304 305 305 305 306 306 307 309 308 308 308 308
285 285 285 285 285 284 284 285 285 285 285 285 285 285 285 285 285 285 285 286 285 285 285 285 285 285 285 284 285 286 285 285 284 284 284 285 285 286 286 287 287 284 283 283 285 285 281 284 284 284 286 287 287 287 287 287 288 288 288 288 288 287 292 298 302 305 309 309 306 306 304 303 303 303 303 303 303 304 305 306 306 307 308 308 308
283 284 283 283 282 282 282 283 283 284 284 284 284 284 284 284 285 285 285 285 284 285 284 285 285 285 284 284 284 284 284 284 284 284 283 284 284 284 285 286 286 285 285 283 284 286 282 282 284 284 283 286 287 287 287 287 290 289 287 287 288 288 292 295 299 303 307 310 307 305 305 303 302 302 301 302 303 303 304 304 305 306 307 307 307
283 282 281 281 281 281 281 281 282 282 282 282 283 283 283 283 284 284 284 285 284 284 285 284 285 284 284 284 284 283 284 284 284 283 283 283 283 283 283 285 284 285 285 284 282 286 286 284 283 284 283 284 286 287 287 287 288 289 287 287 287 290 291 292 296 300 304 307 306 304 304 303 302 301 301 301 302 303 303 304 304 305 305 306 307
281 281 281 282 282 282 282 281 281 280 280 280 280 280 281 282 282 282 283 283 283 284 285 285 285 285 284 284 284 284 284 283 283 283 283 283 283 283 282 283 283 284 284 284 283 284 285 285 284 284 285 284 284 285 285 286 287 289 287 287 287 289 289 288 292 296 301 304 306 305 303 303 302 301 300 301 302 302 302 302 303 303 304 304 305
281 280 280 280 280 281 281 281 281 281 280 280 280 281 281 281 282 281 281 282 282 282 283 284 284 284 284 284 284 284 284 283 283 283 283 283 283 282 282 282 282 283 282 282 282 283 285 283 285 283 285 284 283 284 284 285 284 285 288 287 286 286 287 287 288 292 297 301 305 305 303 302 302 301 300 300 300 301 302 302 303 302 302 303 303
278 279 280 280 280 280 280 280 280 280 280 280 281 281 281 281 281 282 282 281 281 281 281 282 283 284 284 283 284 284 284 284 284 283 283 283 282 282 282 282 282 282 282 282 282 283 283 284 281 281 281 283 284 284 284 284 284 284 284 286 286 286 286 286 286 288 294 298 302 303 303 302 302 302 301 299 300 300 301 301 301 301 300 301 301
279 278 278 279 279 279 279 280 279 279 280 280 280 280 280 280 280 281 281 280 280 280 281 281 282 282 282 282 283 283 284 284 284 284 284 283 283 283 283 283 282 282 282 283 283 282 283 284 283 282 281 281 282 284 284 285 285 285 284 285 285 286 286 286 286 287 292 296 300 303 303 302 301 301 300 300 299 299 299 300 301 300 300 300 300
278 278 278 278 278 278 279 279 279 279 279 279 279 280 280 280 280 280 280 280 280 280 280 280 281 281 281 282 282 283 283 283 283 284 284 283 283 283 283 283 283 283 282 282 282 283 283 282 284 282 282 281 282 283 283 284 284 284 284 284 285 285 285 286 285 285 289 294 298 301 302 301 300 300 300 299 299 299 299 299 300 300 300 299 299
277 278 278 277 278 278 278 278 278 278 279 279 279 279 279 279 279 279 279 279 280 280 280 280 282 281 281 281 282 282 281 281 282 283 283 283 283 283 283 283 283 283 283 282 282 283 282 282 283 282 281 281 282 281 281 282 282 283 283 283 284 284 285 285 285 285 288 291 295 298 300 301 300 299 299 299 299 299 299 299 299 299 299 299 298
278 278 278 278 278 278 278 278 278 278 278 278 278 278 279 279 279 279 279 279 279 280 280 281 281 281 281 281 282 281 281 281 281 282 282 282 283 283 283 283 283 283 283 282 282 282 282 282 282 282 280 280 280 280 281 282 282 282 282 283 283 283 283 283 283 284 284 285 287 291 295 298 298 299 299 298 299 299 299 298 298 299 298 297 297
278 278 278 278 278 278 278 278 278 278 278 278 278 278 279 278 278 279 279 279 279 279 280 280 280 281 281 281 281 281 281 281 281 281 281 281 282 282 283 283 283 283 283 283 283 282 281 281 282 282 282 280 280 281 281 281 282 283 282 281 281 282 282 282 282 282 283 284 286 290 292 294 295 296 297 298 298 299 299 298 298 298 297 296 296
277 277 277 278 278 277 277 277 278 278 278 278 278 278 278 278 278 278 278 279 279 279 279 280 280 280 281 281 281 281 281 281 282 282 282 281 281 281 282 282 282 282 282 283 283 283 282 282 281 281 282 280 278 279 280 279 279 280 281 281 280 281 280 281 282 282 282 283 282 284 289 292 293 294 296 297 297 298 298 298 297 296 295 295 296
279 278 278 277 277 278 278 277 277 277 277 277 278 278 278 278 278 278 279 279 279 279 279 280 280 280 280 281 281 281 281 283 284 285 285 285 283 281 282 282 282 282 282 282 283 283 282 282 282 282 281 280 279 279 278 278 279 280 280 281 281 282 282 281 281 283 283 281 282 282 283 286 287 288 289 289 291 294 295 296 296 295 294 296 296
279 279 279 279 278 278 278 278 278 278 278 279 280 282 283 281 280 280 280 280 280 279 279 279 280 280 280 280 281 283 284 284 284 285 287 287 287 285 284 283 282 282 282 281 282 282 282 282 282 282 281 280 281 279 279 280 280 280 280 280 280 281 280 280 281 281 282 282 281 280 281 284 285 285 286 286 288 290 291 292 293 294 294 296 296
277 278 278 278 278 278 278 278 278 278 278 279 282 283 284 284 282 280 280 280 280 280 279 279 279 279 280 280 280 281 282 283 283 285 286 287 287 288 288 288 287 284 282 282 282 282 282 282 282 282 282 281 282 281 280 280 280 280 280 280 280 280 279 279 278 281 282 281 280 280 280 282 283 283 284 285 286 286 289 290 294 294 294 296 296
276 277 276 276 277 277 277 277 277 277 277 280 282 283 283 284 283 281 280 279 279 279 279 279 279 279 279 280 280 281 281 281 281 281 283 285 286 287 288 288 288 289 288 285 283 282 282 282 282 282 282 282 282 282 280 280 279 280 280 280 280 280 279 279 280 280 281 282 280 279 279 281 282 282 282 283 284 285 286 290 293 295 295 295 296
274 274 274 275 275 275 275 275 275 276 276 280 281 282 282 282 283 282 279 279 279 279 279 279 279 279 279 279 279 280 281 282 282 281 281 281 284 285 286 287 287 288 289 289 289 286 284 284 283 283 283 283 283 283 283 280 281 280 280 280 280 280 280 280 280 282 280 282 281 279 279 280 281 280 281 282 283 284 285 290 292 294 295 295 295
272 272 272 272 273 273 273 273 274 274 274 277 279 280 280 281 282 282 278 278 278 278 278 278 278 278 279 279 279 279 280 280 280 280 280 280 280 280 281 281 282 283 286 288 288 288 287 285 284 283 284 285 283 284 284 283 282 280 281 280 281 280 280 280 282 282 280 282 280 280 279 280 281 280 279 281 282 282 283 287 291 293 294 295 294
269 269 269 269 270 270 271 271 271 271 272 276 278 278 279 280 281 280 277 277 277 277 277 277 278 278 278 278 279 279 279 279 280 280 280 279 279 279 279 280 280 281 281 282 283 284 285 285 285 285 285 286 286 286 286 284 283 283 283 282 282 282 282 283 282 282 280 281 282 281 279 282 281 279 279 280 281 281 282 286 289 291 293 294 294
267 267 268 268 268 268 268 268 268 268 269 274 275 276 277 278 279 276 275 275 275 275 276 276 277 277 278 278 278 278 278 279 281 283 283 281 279 278 278 279 279 280 281 284 285 286 284 284 284 285 285 286 288 287 287 286 284 284 284 284 283 282 281 280 279 280 280 280 281 280 280 281 280 280 279 280 280 280 281 282 287 290 291 293 294
264 264 264 265 266 265 265 266 266 266 267 270 273 275 275 277 275 272 272 273 273 273 274 275 276 276 277 277 277 277 277 277 280 282 283 283 280 279 279 279 279 279 280 282 285 287 288 288 288 289 289 289 290 290 290 290 288 285 282 281 280 281 279 278 279 279 279 279 279 281 280 280 279 279 279 279 279 280 280 281 282 287 290 291 292
262 262 263 263 263 264 264 264 264 264 265 268 272 273 274 274 274 271 270 270 270 271 272 273 274 275 276 278 278 277 277 277 281 283 283 282 279 279 279 278 278 278 279 281 282 283 286 287 288 288 289 289 289 290 290 290 290 289 283 280 281 281 279 279 277 279 280 279 279 281 279 279 280 279 279 277 278 279 280 280 281 282 287 289 291
261 261 261 261 261 262 262 263 265 264 263 266 270 271 272 273 272 270 270 270 270 270 271 272 274 274 274 276 277 277 277 278 281 282 283 281 279 278 278 278 277 278 279 280 280 280 281 281 282 283 284 286 286 286 287 289 289 289 287 284 283 281 279 279 279 279 278 279 280 281 278 279 278 278 279 276 274 277 279 280 280 281 282 285 287
Wind_Speed
7 7 5 6 5 6 5 6 5 5 5 5 6 5 5 5 5 5 4 4 4 4 3 4 3 2 3 4 3 3 3 2 3 3 2 2 1 1 2 2 3 5 10 12 12 12 11 12 12 9 10 9 9 9 8 7 8 8 6 7 7 6 5 4 3 3 3 4 5 6 5 5 5 5 5 5 5 4 4 4 3 4 3 4 4
6 6 7 6 6 6 6 6 6 5 6 6 5 6 6 4 5 5 5 5 4 5 3 5 4 4 3 4 4 5 4 4 4 4 3 2 2 1 3 3 3 3 7 12 12 13 12 12 10 11 11 10 8 8 7 6 7 9 9 7 7 6 6 5 4 4 5 5 4 5 6 6 6 5 5 5 4 4 4 4 4 3 4 4 3
6 7 6 6 6 6 6 6 6 6 6 6 5 6 5 6 6 6 6 5 6 4 5 5 5 4 4 4 5 4 4 3 3 3 3 4 3 2 1 3 3 3 4 6 11 13 12 13 13 13 12 11 11 10 9 8 8 8 8 8 8 7 6 6 6 5 6 6 6 6 6 6 6 5 5 5 5 5 5 4 4 4 4 4 5
7 6 6 6 6 6 5 6 6 5 6 6 6 5 5 5 4 4 4 4 5 4 4 5 5 5 4 4 3 4 5 4 4 4 4 4 3 3 2 1 3 2 3 4 8 11 12 12 12 13 13 12 12 12 11 11 10 9 9 8 8 9 8 8 7 7 6 7 8 7 6 7 6 6 6 5 5 5 5 5 4 4 4 4 4
6 7 7 6 6 6 6 6 6 6 5 5 5 4 3 3 3 2 3 4 4 5 3 4 5 5 5 5 4 5 4 4 5 4 4 4 5 4 3 1 1 2 1 2 2 3 5 9 13 13 13 13 14 13 13 12 12 12 11 11 10 9 10 9 7 7 8 8 8 8 7 6 8 7 7 6 6 5 4 4 5 4 4 4 4
6 6 6 6 6 6 7 6 6 5 5 5 6 5 5 4 4 3 4 4 5 5 5 6 6 4 5 5 5 6 5 5 5 6 4 5 5 4 4 2 1 1 1 1 1 3 4 5 6 11 13 14 14 13 14 14 13 12 12 11 11 11 11 10 9 9 9 9 9 8 8 7 7 7 6 6 6 5 5 4 4 5 5 4 4
6 7 7 6 6 6 6 7 6 5 6 6 6 6 6 6 5 5 3 3 4 4 5 6 5 7 7 6 7 6 4 6 5 5 5 5 5 4 5 4 3 3 2 1 1 2 3 4 6 8 13 14 13 13 13 13 13 13 12 12 12 12 12 11 11 11 11 10 9 9 8 8 8 8 7 6 6 6 6 5 5 5 5 5 4
7 6 7 7 7 7 7 6 6 6 6 5 5 6 6 5 5 6 5 5 4 6 3 5 5 6 5 5 6 5 6 5 5 5 6 5 5 4 5 5 4 4 4 3 3 2 3 4 5 7 8 10 12 12 13 13 13 13 12 12 12 12 12 12 12 12 11 11 10 9 8 8 8 8 8 7 6 7 7 7 6 5 5 5 5
6 6 7 7 7 7 6 7 6 7 6 6 6 6 6 6 5 5 6 7 7 6 5 5 6 5 4 4 4 4 5 6 6 6 4 4 5 5 5 5 4 5 4 5 5 4 3 4 5 7 7 7 10 12 13 13 13 13 13 13 12 12 12 11 11 11 12 11 11 10 10 10 10 9 8 8 8 8 7 6 6 5 5 5 5
6 6 6 6 6 6 5 6 6 6 6 6 7 5 5 6 7 6 6 5 6 7 7 4 3 4 4 5 5 4 5 6 6 4 5 6 6 7 7 5 5 6 6 4 4 4 3 4 4 2 2 3 7 12 13 13 14 14 14 13 13 12 12 12 11 12 12 12 11 10 11 10 9 9 9 8 9 8 7 7 6 6 5 6 6
5 6 6 6 6 5 5 5 6 6 6 6 4 4 4 5 7 6 4 6 6 6 6 4 4 4 5 6 4 4 5 5 5 4 6 7 7 6 3 6 6 6 4 4 4 4 4 4 3 3 3 5 6 11 13 14 14 14 14 14 13 13 13 13 12 13 12 12 12 11 11 11 10 9 9 9 9 9 9 8 7 7 7 7 7
4 5 5 5 5 5 5 4 4 5 6 6 5 6 8 7 7 7 7 4 1 3 3 4 1 1 4 5 4 4 5 4 4 5 6 6 4 3 6 7 7 4 5 6 5 4 4 4 4 5 4 5 7 7 13 15 13 14 15 15 15 15 14 13 13 13 12 13 13 12 11 12 11 11 10 10 9 9 10 9 9 9 8 8 8
3 4 5 4 4 3 3 3 3 4 5 7 8 9 8 7 5 4 6 5 4 2 3 4 4 2 2 3 6 4 4 4 6 7 7 4 5 7 8 7 5 5 7 6 5 5 5 5 5 5 6 5 6 8 9 13 7 7 15 16 17 16 16 15 15 14 13 13 14 13 12 12 12 12 11 11 10 11 10 10 10 10 9 9 9
1 1 2 3 3 3 4 5 4 5 5 2 1 1 2 3 3 3 3 6 6 5 4 6 1 5 3 3 4 6 5 5 6 7 5 5 7 7 7 6 7 8 7 6 6 6 6 6 5 5 5 5 5 6 5 7 5 9 13 16 17 17 17 16 16 15 15 15 15 15 13 13 12 12 12 12 12 11 11 11 11 10 10 10 9
2 1 1 0 0 1 2 1 2 2 2 3 3 4 5 5 5 6 4 2 3 2 5 7 6 2 2 2 5 3 4 6 7 7 6 7 7 8 8 6 9 7 6 6 7 7 6 6 6 6 6 6 6 6 6 6 6 8 11 15 16 18 18 17 17 16 16 16 16 16 15 14 13 14 13 13 12 12 12 11 11 11 11 11 10
3 2 2 1 0 1 1 2 3 3 4 4 4 5 3 4 5 7 5 4 3 6 7 8 5 6 4 7 3 1 6 8 11 6 8 9 9 10 5 8 7 5 5 8 8 7 7 7 8 8 8 7 7 7 7 6 9 11 12 11 10 9 14 19 18 18 17 17 17 17 16 15 14 14 15 14 13 13 13 12 11 11 11 11 11
3 3 3 3 2 1 1 0 1 2 3 3 5 7 6 6 6 5 6 8 8 5 4 6 8 8 6 2 2 2 6 5 2 6 4 7 9 9 8 8 7 8 7 7 6 8 8 8 9 7 8 8 8 7 7 7 7 6 9 12 12 11 12 14 19 20 18 18 18 18 17 16 15 15 15 14 14 14 13 12 12 12 12 11 11
3 3 3 2 3 2 1 1 1 2 3 4 4 3 3 5 7 7 8 7 8 6 5 4 9 9 7 4 4 3 1 3 1 7 1 5 6 6 7 8 7 6 7 8 9 9 8 9 7 9 9 8 7 7 8 8 7 7 8 9 14 14 13 15 16 19 21 20 19 19 18 18 17 16 16 15 15 14 14 13 13 13 13 12 12
7 6 4 3 3 3 2 1 1 1 2 2 3 5 5 5 4 5 7 7 5 8 8 6 3 6 7 9 7 3 3 1 4 3 8 2 5 7 9 6 5 6 8 9 9 8 7 7 8 9 8 7 8 8 7 8 10 10 12 13 17 17 17 15 16 16 19 21 21 20 20 19 18 17 17 16 16 15 15 14 14 13 14 13 13
8 8 7 7 7 6 4 3 2 2 2 3 4 4 3 3 4 5 4 4 6 8 8 6 8 5 8 12 11 9 5 3 3 3 4 8 7 2 4 6 6 7 7 9 10 9 8 9 10 8 8 8 8 8 8 8 9 10 10 17 19 21 20 18 16 16 15 19 22 21 20 20 19 19 18 17 17 16 15 15 15 14 14 14 13
9 9 8 8 7 6 6 6 5 4 1 3 3 3 4 4 4 4 5 6 6 7 7 7 6 8 5 7 7 11 10 9 4 3 5 5 10 4 6 2 3 6 8 10 9 9 11 11 10 9 7 8 9 9 9 9 9 9 9 18 22 23 23 22 19 17 17 16 21 22 22 21 20 20 19 18 18 17 16 16 16 15 15 14 14
8 8 9 9 8 7 7 6 6 6 4 3 3 3 4 4 5 5 5 5 5 6 8 7 7 7 7 6 6 4 5 6 6 7 7 7 13 10 5 6 8 8 10 11 12 13 11 9 8 9 10 10 9 9 9 10 9 8 11 18 20 23 23 23 22 20 18 17 17 19 22 22 21 20 19 19 18 18 17 17 16 15 15 15 14
8 8 9 9 9 8 7 7 6 5 6 5 5 4 4 4 4 4 4 5 6 6 6 6 7 7 7 6 9 9 9 9 7 6 9 10 8 10 7 7 9 9 6 10 12 12 9 7 9 10 11 10 9 9 9 10 10 11 14 16 19 20 21 23 23 21 20 20 21 20 21 21 22 21 20 19 19 19 18 18 17 16 15 15 15
8 8 10 10 9 8 8 8 8 7 7 6 6 5 4 3 3 3 4 4 4 5 5 6 6 7 8 7 8 7 8 8 7 6 7 9 8 14 11 4 6 8 5 4 6 9 9 11 11 11 11 10 9 9 9 9 11 18 15 16 18 20 22 24 24 22 21 21 21 21 21 22 21 21 20 19 20 20 19 18 18 17 17 16 15
9 9 9 9 8 8 8 8 8 8 7 6 6 6 5 4 4 4 4 4 5 5 5 6 7 7 7 8 7 8 9 7 6 7 6 6 7 12 9 3 12 9 3 4 6 3 10 11 10 10 11 10 9 8 10 10 10 14 17 13 19 19 21 22 22 22 19 20 21 22 22 22 20 20 20 19 20 20 20 19 19 18 18 17 16
7 8 7 8 8 7 7 7 6 7 6 6 5 5 5 6 5 6 6 6 4 4 5 5 6 6 6 6 7 7 8 6 8 7 7 7 9 10 10 7 5 9 3 3 2 3 5 8 10 11 10 10 10 10 9 11 11 15 19 14 15 20 21 21 22 22 21 20 21 21 21 20 21 20 20 20 20 21 21 20 20 19 19 18 17
7 7 8 8 8 8 8 8 8 8 7 7 7 6 6 6 6 6 6 6 6 4 5 5 6 6 6 6 7 7 7 6 7 8 7 9 10 9 8 13 13 10 9 5 5 10 10 2 9 10 11 10 10 10 11 10 14 17 16 13 11 18 20 23 24 25 24 23 23 22 21 21 21 21 21 20 21 20 21 21 20 20 19 19 18
5 7 8 8 9 9 8 8 8 8 8 7 7 6 6 6 6 6 7 6 6 6 6 4 5 6 6 6 6 7 7 7 6 7 7 8 8 8 7 10 12 15 11 11 8 9 5 8 5 9 10 10 11 11 12 13 11 16 17 11 11 12 18 23 25 26 26 25 24 23 23 22 22 22 21 21 21 20 20 20 19 19 19 18 18
5 4 6 7 6 7 8 8 9 8 9 9 8 7 7 6 6 6 7 7 6 6 6 5 6 5 5 6 7 7 6 6 6 6 7 7 7 7 8 11 10 12 13 13 14 11 4 10 7 6 11 11 12 10 11 12 14 15 11 12 12 12 14 24 26 26 27 28 26 25 24 23 23 23 23 22 22 22 22 21 20 19 19 18 18
6 7 7 8 7 7 7 8 8 8 8 8 8 8 7 7 6 6 6 6 6 6 5 5 6 5 6 5 5 6 6 6 7 6 6 7 7 7 7 8 8 13 13 14 16 10 6 4 9 6 4 11 11 10 10 12 15 16 12 12 12 13 14 22 25 26 27 28 29 27 26 25 24 24 24 23 23 23 23 22 21 20 19 20 19
7 7 6 6 6 7 5 6 6 6 6 6 6 7 7 7 8 7 6 5 6 6 6 5 6 5 6 6 6 6 6 6 7 7 7 6 7 7 7 7 8 10 13 12 15 14 6 9 8 7 7 9 10 11 9 10 12 15 13 12 13 16 19 18 23 24 25 26 25 25 26 26 25 25 25 24 24 24 23 23 21 20 20 20 20
7 7 7 8 8 8 6 5 5 4 5 5 4 4 5 5 5 6 7 6 6 7 7 6 5 6 6 7 7 6 6 5 6 6 7 7 6 7 7 7 9 9 9 11 14 22 4 6 6 8 11 9 9 11 11 9 10 15 12 12 13 15 13 11 18 22 24 24 24 25 26 26 26 26 26 25 25 25 24 24 23 22 21 20 20
6 7 7 7 8 8 9 9 9 8 7 7 5 3 4 5 5 5 5 5 5 7 6 8 7 6 6 7 8 7 6 6 7 6 7 7 7 7 7 7 8 8 8 9 14 18 11 5 7 6 8 8 7 9 11 10 9 9 11 12 12 11 11 11 11 20 24 25 24 25 25 25 26 26 26 26 25 26 25 25 24 22 22 22 21
3 5 6 6 6 7 6 8 8 8 8 8 8 6 7 7 6 4 5 6 6 6 4 6 7 7 7 7 8 8 6 7 7 7 7 7 7 7 7 7 8 8 7 9 13 13 20 6 5 3 3 6 10 6 11 12 11 9 11 12 11 12 12 11 11 12 24 25 25 24 24 26 26 26 26 26 26 26 25 25 23 22 22 22 21
5 4 5 5 6 6 6 7 7 7 8 8 8 8 8 9 9 8 6 5 5 6 7 8 7 6 7 7 8 7 6 7 8 7 6 7 7 8 9 7 8 9 7 9 10 14 17 16 6 8 6 5 9 10 10 11 11 11 13 14 13 11 11 12 12 11 15 23 24 23 24 25 26 26 26 25 25 25 25 25 24 22 22 22 22
5 6 4 6 6 6 7 7 7 7 9 9 8 8 8 8 9 10 10 8 7 6 6 7 8 8 8 8 8 7 6 8 9 8 7 7 7 7 8 8 8 9 7 7 11 12 13 15 11 7 5 7 9 8 5 8 10 10 11 11 9 11 11 10 11 11 12 21 23 23 23 24 25 25 25 25 25 25 25 24 24 24 23 23 22
5 5 6 5 6 6 7 7 8 8 8 8 8 9 9 8 8 9 9 9 9 9 8 8 8 7 8 8 9 7 6 8 9 8 8 9 8 8 9 8 8 8 7 7 10 10 12 15 14 7 5 7 6 5 4 7 6 7 7 10 11 12 11 11 10 9 8 14 18 23 23 23 23 25 25 24 24 25 25 25 25 24 24 23 22
6 6 7 6 6 8 7 8 8 8 8 8 8 9 9 9 8 8 8 8 9 9 10 10 8 7 7 9 9 7 6 8 9 8 8 9 8 9 10 9 8 8 9 9 9 10 12 14 13 12 5 7 6 7 7 8 8 9 9 9 7 8 9 9 9 7 7 8 9 13 18 20 23 24 25 25 26 26 26 25 25 25 23 23 22
7 7 7 8 7 8 8 8 8 9 9 8 9 9 9 9 9 9 10 10 9 9 9 10 10 9 9 9 9 9 9 9 9 9 9 8 8 10 10 10 9 9 10 10 9 10 11 13 13 11 11 7 8 10 7 7 9 11 11 9 10 8 7 9 10 6 6 9 10 13 13 15 17 17 21 25 24 25 25 24 25 26 24 23 22
6 7 7 8 8 6 8 8 8 8 9 9 8 8 8 9 9 9 9 10 11 10 10 10 10 10 10 10 10 10 10 10 10 10 9 9 8 9 9 8 8 9 10 10 9 10 11 12 12 12 9 9 6 7 0 3 6 8 8 7 10 8 9 8 11 11 10 10 11 11 10 14 16 17 15 19 24 25 25 24 25 24 23 22 22
7 7 7 7 9 10 9 8 8 7 7 9 8 7 8 9 9 10 11 11 11 11 11 11 11 11 10 10 10 10 12 15 18 16 14 12 9 9 10 8 8 9 9 8 9 9 10 11 12 11 10 9 8 7 8 8 11 13 6 8 11 12 8 7 10 10 8 10 11 9 10 11 11 11 11 12 14 21 21 23 19 25 24 22 23
9 9 10 10 9 10 12 12 10 9 9 9 10 15 15 11 10 9 10 10 10 10 11 12 12 12 12 11 12 17 19 19 19 19 19 20 20 15 12 10 9 9 9 10 10 9 10 11 12 12 11 11 12 9 10 10 9 5 6 10 13 8 5 9 9 10 9 10 8 10 11 8 9 11 11 13 13 14 12 14 14 16 20 24 26
11 11 10 12 11 11 11 11 12 11 10 10 17 21 22 24 15 11 11 12 11 12 11 12 13 14 13 12 11 13 15 16 16 19 20 21 20 22 23 22 17 12 11 11 11 10 10 11 11 12 12 14 14 9 9 9 7 10 11 10 10 8 11 11 14 7 9 10 11 9 10 8 10 13 13 14 13 12 13 13 15 20 22 25 26
11 11 12 12 12 12 11 12 12 12 13 16 24 24 24 24 21 14 11 12 12 12 12 13 13 13 14 14 12 11 11 12 13 13 15 18 21 21 22 23 22 23 20 15 13 11 11 12 13 13 12 14 14 9 6 7 8 8 9 9 10 12 12 13 13 13 6 14 10 10 14 9 10 13 13 14 13 12 13 14 20 22 25 26 26
11 12 13 13 14 13 13 14 14 14 14 20 26 26 25 25 25 21 12 12 13 13 14 14 14 14 13 13 13 12 11 18 15 13 13 14 16 20 21 23 23 23 24 26 24 18 12 12 12 15 14 14 15 12 9 6 6 12 10 11 11 11 11 12 13 11 5 13 11 12 14 11 12 14 15 16 13 12 13 16 22 24 25 26 26
11 12 13 14 14 14 13 14 14 15 16 21 28 28 27 27 27 23 14 14 14 14 15 16 15 15 15 14 14 14 13 13 13 13 12 13 13 13 13 12 13 15 19 24 25 26 21 15 14 16 17 14 14 13 9 6 9 11 10 12 12 12 12 15 13 9 6 13 17 13 12 10 12 14 16 15 11 11 12 14 22 23 25 26 26
11 12 12 13 14 13 13 12 12 14 15 26 28 29 28 28 28 24 15 14 13 14 14 15 16 16 16 15 15 16 16 15 13 14 14 14 13 13 13 14 14 14 13 13 13 13 14 13 14 17 18 16 14 16 12 8 11 11 11 13 13 13 13 13 12 9 8 11 12 11 15 13 10 11 15 13 9 12 11 14 22 24 25 25 25
10 10 11 10 12 13 12 11 12 15 17 28 28 28 29 28 30 18 13 14 13 14 14 14 14 14 14 15 15 16 16 16 17 23 21 16 15 16 16 16 15 14 14 12 17 16 14 12 13 15 16 15 13 14 14 11 9 8 8 7 7 8 10 11 13 9 10 7 11 12 10 9 7 14 13 8 8 12 11 11 17 24 24 24 25
11 11 11 11 10 12 14 13 13 14 17 23 26 28 28 29 24 14 14 13 13 14 14 16 13 13 13 14 15 16 16 17 20 26 27 25 16 17 17 17 16 14 14 13 18 22 23 23 25 27 26 24 22 22 23 24 18 10 6 8 11 9 10 12 13 10 11 7 9 12 11 11 6 11 9 6 10 11 11 12 11 18 24 24 24
12 11 10 11 12 9 11 13 12 14 16 21 28 28 28 28 23 16 12 12 15 15 15 14 13 13 16 29 27 18 17 17 23 30 30 24 18 18 18 18 18 17 15 14 11 12 19 24 25 26 26 26 26 28 28 28 25 17 10 14 12 8 11 13 15 11 8 7 10 13 9 13 5 5 4 0 3 5 9 8 8 9 18 19 24
11 11 9 10 12 9 7 10 19 19 15 18 25 26 28 27 21 13 12 10 13 12 13 14 15 14 16 20 28 26 23 23 32 32 32 26 19 18 18 17 18 18 17 14 14 13 12 11 12 13 15 18 17 14 15 24 23 19 14 13 11 10 12 14 12 9 9 12 11 13 11 11 6 5 7 4 5 3 3 5 8 8 9 9 11
Wind_Direction
177 179 162 188 175 170 169 180 178 181 170 187 174 172 175 168 173 180 186 198 204 236 248 249 240 229 203 214 221 218 209 177 177 190 202 215 238 283 290 276 278 279 209 198 191 200 194 204 186 182 186 186 188 184 193 206 186 180 187 180 176 171 160 162 168 168 171 176 166 165 161 157 151 159 158 155 154 157 153 150 154 153 142 139 123
179 173 172 186 184 177 175 178 182 180 179 185 190 174 179 176 178 182 190 204 210 225 205 227 225 222 212 208 212 206 204 187 186 189 203 218 237 282 299 300 302 293 229 209 200 197 202 203 192 183 194 183 182 188 190 210 197 188 188 190 179 180 163 170 175 179 187 184 172 167 169 160 158 158 162 160 166 164 168 158 160 167 161 152 164
175 175 181 179 182 183 186 170 182 187 184 191 179 184 175 185 184 188 196 204 220 214 197 206 211 210 209 201 212 193 208 206 186 188 192 212 229 249 281 305 297 297 317 264 213 202 202 200 195 192 188 185 187 190 185 202 205 197 189 191 186 175 174 178 178 185 184 186 182 172 172 169 166 164 177 180 185 185 177 177 166 168 167 161 151
176 176 180 177 182 184 179 176 192 187 191 184 182 182 181 189 185 190 194 194 218 220 211 195 203 209 200 214 203 195 205 200 192 193 199 203 220 232 247 277 295 302 306 287 223 208 205 207 202 201 188 187 193 194 185 195 199 200 197 187 192 181 179 186 185 194 189 188 188 176 176 177 178 176 183 186 187 189 183 182 178 172 175 173 169
184 179 180 180 180 181 183 191 190 186 186 182 173 173 162 166 198 187 197 199 208 225 220 218 201 215 205 219 194 210 208 190 204 193 201 206 213 215 223 248 290 321 319 330 257 230 227 213 211 209 196 193 198 199 182 190 196 199 200 195 195 181 183 189 189 187 195 192 191 183 180 177 185 187 185 183 186 188 190 186 184 184 181 190 175
176 180 175 176 180 187 186 193 191 182 176 168 175 172 178 173 200 179 215 204 212 217 203 220 227 216 210 211 198 209 200 202 200 204 197 207 209 207 217 227 240 251 286 284 256 239 210 209 221 223 203 201 200 201 188 190 194 201 199 198 194 188 189 191 186 195 196 196 191 185 184 188 188 192 191 189 188 188 193 197 195 194 190 189 181
184 177 182 179 179 188 191 196 180 173 175 185 177 177 176 190 172 194 220 238 235 225 214 221 211 216 217 202 208 208 203 205 195 205 203 207 197 209 210 213 222 222 225 236 271 250 221 212 212 227 219 206 200 204 197 195 195 200 205 200 198 196 195 190 192 196 195 190 193 190 189 190 191 192 193 194 192 186 193 195 199 194 194 187 185
183 178 177 184 184 188 197 179 177 169 181 177 173 182 189 191 190 177 187 228 231 252 249 235 228 228 227 216 217 203 207 211 204 208 213 194 203 206 209 213 210 209 210 211 211 229 222 221 219 212 211 199 204 207 205 204 201 205 207 205 200 200 195 194 195 198 195 191 190 192 192 195 200 195 195 193 196 204 193 190 194 193 194 197 191
180 181 180 185 188 191 187 181 169 175 177 181 189 189 180 190 195 197 190 199 201 226 237 239 240 244 248 243 237 214 215 216 216 215 195 203 208 211 211 216 211 211 210 210 207 215 214 209 217 212 211 204 212 210 208 208 209 208 210 209 207 205 200 199 199 200 200 196 195 194 197 202 202 199 193 197 201 205 203 196 195 193 193 202 200
176 178 184 187 190 189 176 176 174 176 179 178 200 181 182 178 200 204 197 190 203 211 227 229 253 257 250 239 239 226 225 223 226 215 194 210 215 211 210 208 208 214 213 213 211 208 212 207 191 166 182 216 220 211 208 210 212 214 215 215 214 213 208 206 208 205 204 204 203 195 203 204 203 201 201 198 207 204 209 208 204 195 199 200 204
166 168 174 178 184 186 179 185 177 173 173 181 183 178 188 197 200 205 204 208 198 206 208 191 233 254 253 253 264 248 248 243 238 227 218 217 213 215 199 216 213 215 212 211 221 214 213 217 199 196 216 222 224 214 213 212 214 216 218 216 216 216 217 217 212 213 210 209 210 202 207 205 205 204 205 208 209 207 209 210 206 206 199 205 198
158 165 165 171 177 186 192 174 181 169 173 179 190 186 197 196 212 195 204 224 219 181 153 146 133 301 295 298 277 263 260 253 246 235 232 225 218 202 212 220 215 211 208 213 211 218 218 217 214 210 215 234 237 240 221 217 218 218 216 217 214 214 216 216 219 217 213 217 218 212 209 210 213 214 210 210 210 213 211 211 210 208 206 204 202
139 153 171 168 181 163 169 176 176 188 195 203 202 203 202 199 195 186 195 204 238 168 168 136 147 271 347 316 296 279 281 276 253 248 240 233 213 213 221 214 216 209 214 208 207 211 215 217 218 216 218 217 234 237 236 223 207 227 220 219 217 215 214 212 215 217 215 219 222 220 215 214 218 217 215 211 211 213 216 212 213 210 209 207 201
108 134 130 156 158 167 187 198 185 206 215 220 158 203 184 190 149 198 212 197 222 180 180 126 215 213 234 299 304 289 273 279 258 249 239 239 227 225 221 211 214 214 211 203 210 208 212 213 215 221 224 222 225 233 238 232 210 219 219 220 219 218 217 214 213 212 213 216 221 221 220 218 219 220 217 217 215 215 215 215 216 212 213 213 206
46 51 65 60 74 139 228 166 209 217 215 226 196 204 200 197 188 202 212 228 238 166 176 191 196 137 113 27 281 291 302 267 257 235 217 226 229 233 225 222 221 213 201 199 212 213 213 207 211 215 220 219 220 221 224 227 218 227 228 225 224 222 219 220 216 213 216 217 220 220 219 220 219 221 220 220 220 219 220 219 218 215 214 215 210
29 35 33 38 104 183 141 165 195 178 206 224 211 226 204 202 201 217 188 212 214 233 190 200 162 133 258 213 234 173 301 251 242 240 202 218 217 228 223 227 226 220 196 210 211 210 215 205 212 210 211 213 212 213 215 217 223 224 231 241 255 260 240 223 221 217 213 214 220 221 220 219 218 220 220 221 219 220 220 220 222 219 218 217 213
34 37 30 11 17 22 16 311 190 192 189 215 220 222 216 217 211 209 196 213 230 225 215 196 211 212 180 96 319 284 231 268 349 275 208 218 230 227 225 229 224 217 216 226 214 215 210 211 214 209 211 209 211 211 211 215 220 224 231 236 239 242 245 251 226 219 220 217 217 222 222 221 219 218 220 219 218 220 221 220 219 223 221 219 218
39 42 35 27 356 4 4 293 252 210 197 220 237 235 224 214 212 211 218 223 232 223 233 221 220 225 224 212 159 189 261 271 36 281 314 238 248 232 230 231 227 224 225 226 218 220 214 218 207 213 210 207 208 209 210 213 213 217 219 229 230 231 235 240 248 227 217 220 220 219 221 221 219 217 216 215 216 219 221 219 220 220 220 220 219
356 6 9 14 2 351 350 330 273 230 208 208 236 233 232 223 216 209 222 223 218 240 229 227 226 249 245 248 254 197 153 16 259 326 305 308 245 231 238 237 236 231 231 232 230 226 224 222 219 219 211 208 206 209 209 215 214 214 216 219 224 226 229 233 238 245 228 218 222 222 220 218 218 216 216 216 216 217 219 221 221 221 220 222 220
18 8 6 355 349 339 352 339 316 276 192 214 230 244 249 253 221 226 231 226 220 229 239 219 219 230 208 239 249 253 210 186 182 223 269 288 297 293 276 250 240 239 237 238 233 226 224 220 223 217 214 212 208 207 210 212 216 218 220 220 221 223 224 226 232 236 250 231 221 222 222 221 219 218 215 216 216 215 217 220 222 223 223 222 223
28 24 20 13 2 348 338 330 323 309 260 253 253 247 233 238 240 226 222 228 221 229 234 237 220 238 231 239 235 244 251 243 222 172 244 290 276 247 269 285 244 247 243 238 238 227 224 222 216 215 213 216 211 211 209 209 214 214 219 219 221 222 221 222 223 229 232 242 225 222 223 221 222 220 217 216 216 215 215 218 221 222 223 224 224
14 20 20 15 11 2 350 336 326 319 317 281 266 252 251 239 238 232 230 234 233 228 233 242 239 241 227 246 235 250 258 267 255 256 259 215 259 269 242 239 250 240 225 234 232 230 228 225 217 215 217 217 213 212 210 211 210 210 218 218 220 222 221 219 220 221 225 229 221 220 222 223 223 223 221 220 217 216 215 215 218 220 222 224 225
7 9 18 10 5 5 3 346 330 321 315 309 289 274 265 247 253 244 242 235 239 239 241 243 247 249 243 234 243 237 240 242 240 226 236 257 267 263 258 233 238 265 243 233 236 236 231 223 224 222 220 220 216 211 212 214 211 215 214 213 218 221 223 221 219 219 220 220 214 214 217 222 224 225 221 221 220 217 216 215 215 217 219 222 223
10 9 8 3 4 357 356 357 353 343 329 319 311 302 296 283 271 249 246 240 247 249 252 250 244 246 248 245 248 245 247 247 247 217 226 246 246 265 268 285 282 237 269 298 253 235 225 222 223 225 224 223 219 212 215 212 218 218 216 216 217 219 221 221 219 217 217 211 208 205 207 217 222 223 224 223 223 221 217 216 214 214 216 218 221
5 5 3 358 357 1 358 354 350 347 335 335 321 322 319 313 295 289 273 260 244 236 238 242 238 242 245 246 248 248 249 249 244 241 239 238 242 263 263 186 262 279 273 239 262 241 223 226 220 224 227 223 221 214 215 215 219 218 214 218 218 219 221 223 220 212 205 203 198 198 199 205 212 217 220 223 225 223 221 218 216 213 213 215 217
358 6 354 355 360 356 351 350 348 347 350 345 340 330 329 321 315 306 294 279 271 252 246 251 253 252 254 259 254 252 252 244 243 239 240 239 247 246 269 260 229 268 283 277 279 266 268 220 216 222 223 221 220 216 214 217 220 219 212 213 218 219 220 222 224 214 205 202 199 196 197 200 206 210 216 221 224 225 223 221 218 215 214 214 215
359 349 358 6 4 0 357 354 351 347 350 353 350 345 341 336 322 308 303 293 287 273 264 256 260 260 257 246 254 254 255 245 239 244 234 235 242 246 242 267 271 255 264 242 275 224 243 283 224 225 223 220 221 219 218 217 221 217 212 214 221 221 220 221 222 220 210 205 204 201 198 198 203 207 211 217 222 224 225 223 221 219 217 217 217
349 354 359 7 2 360 359 358 350 349 348 348 347 346 342 338 323 320 310 299 298 295 281 271 264 260 258 263 263 259 256 254 243 244 240 239 238 243 235 246 260 274 266 267 246 259 199 232 261 226 222 219 223 220 221 221 225 219 211 212 216 220 220 221 221 221 216 209 206 206 203 199 200 205 209 213 217 221 225 227 224 222 220 220 220
352 0 357 360 3 360 354 353 354 351 350 350 346 344 343 337 327 318 311 306 305 292 288 282 271 265 263 255 253 262 260 259 256 248 247 249 245 239 225 236 244 259 268 266 265 262 245 199 231 238 207 217 221 219 219 218 221 213 210 210 214 218 216 219 220 220 219 217 214 209 207 203 201 203 206 211 214 217 221 223 225 223 220 220 220
354 352 359 357 354 358 355 349 348 349 349 345 346 342 341 336 323 312 298 302 302 300 291 281 280 270 265 266 258 260 257 260 258 250 246 242 247 243 238 236 231 245 257 267 272 252 257 230 219 236 192 219 220 225 220 224 220 212 214 211 215 219 213 216 219 219 219 218 217 214 210 208 204 202 205 207 211 213 217 220 221 223 221 218 219
352 355 353 351 351 346 350 341 341 340 336 337 336 337 340 335 331 323 315 317 310 302 295 296 287 285 278 274 266 260 257 256 258 258 255 247 243 244 248 240 237 238 252 261 273 263 179 238 230 231 217 220 214 223 226 228 224 214 217 215 218 221 219 220 220 220 220 220 216 214 211 209 207 204 203 204 207 210 214 216 217 219 220 219 218
344 345 348 345 344 344 339 332 324 324 325 321 324 320 321 314 309 318 314 323 320 313 309 304 293 288 286 284 274 266 264 258 260 255 255 251 243 242 238 242 246 241 247 255 256 270 217 218 227 217 220 221 213 217 226 226 224 216 221 220 223 223 223 226 224 223 222 221 215 211 211 209 208 206 205 204 205 209 212 214 216 216 217 216 215
339 337 336 335 331 334 333 333 335 331 331 326 322 310 309 307 307 304 306 317 318 313 312 307 301 290 282 278 279 274 269 266 261 258 257 254 252 247 239 237 244 243 238 250 259 270 267 193 237 212 224 211 237 216 225 223 222 220 221 224 222 219 221 220 221 223 223 222 219 214 211 209 208 207 206 204 204 207 210 213 214 215 216 216 215
320 310 316 316 318 319 322 317 318 320 318 319 320 325 320 318 308 305 315 318 315 305 298 288 293 294 289 287 285 282 269 263 265 259 252 256 250 253 250 230 241 243 217 241 258 264 275 252 269 272 259 196 233 205 211 218 220 212 218 223 220 216 219 217 217 222 222 224 222 217 213 210 210 210 208 206 205 206 208 211 213 213 214 217 217
312 303 296 301 301 304 305 304 307 309 308 309 310 315 315 317 315 313 306 300 294 297 302 296 293 287 286 279 280 281 284 279 272 259 254 253 247 248 255 241 245 245 228 226 248 262 269 274 221 246 220 227 215 226 212 221 221 211 215 220 216 216 219 216 217 222 220 221 223 220 214 213 211 211 211 209 206 206 206 209 210 212 213 216 216
281 286 291 289 297 296 296 296 297 298 303 302 304 304 302 305 308 306 309 307 298 284 276 278 283 288 287 291 284 280 278 280 280 277 265 255 254 253 256 254 248 253 237 227 234 251 266 275 259 226 234 217 243 245 236 230 224 219 219 227 221 222 222 220 221 223 219 220 221 221 216 214 213 212 212 211 210 207 206 206 209 210 212 214 215
262 271 278 273 275 276 274 279 284 284 283 287 291 293 293 291 290 291 293 295 295 291 285 277 273 271 272 267 274 281 278 275 275 274 271 266 260 257 258 256 253 252 250 232 240 244 258 263 270 242 225 237 243 247 214 220 232 234 233 228 220 222 222 220 222 226 224 224 228 226 222 218 217 214 213 213 212 209 207 206 208 210 211 212 212
260 255 257 262 252 260 260 260 263 268 271 274 273 275 277 281 281 279 275 273 275 278 282 280 276 269 270 273 274 269 262 260 267 268 265 263 263 261 260 260 255 251 253 249 244 248 252 261 265 270 223 235 247 240 214 206 213 225 233 236 237 229 223 225 224 219 213 215 217 226 228 225 221 217 215 215 214 211 209 208 209 210 209 210 210
259 263 259 260 258 255 260 261 260 262 265 263 265 269 273 275 276 278 280 277 273 272 272 275 276 276 270 270 272 271 266 258 259 259 259 259 256 255 255 257 254 254 253 252 249 249 252 261 265 258 261 231 221 245 228 201 216 216 219 221 233 228 226 220 227 216 213 223 231 230 229 225 221 218 218 217 216 215 213 212 210 209 209 208 208
266 264 270 271 273 264 263 265 263 261 263 266 264 263 264 268 274 275 275 278 279 277 277 275 273 271 269 268 266 265 261 262 260 260 253 255 253 257 254 250 250 250 251 254 254 252 254 260 261 266 255 253 233 244 236 160 228 245 224 209 229 228 224 225 224 213 213 213 218 221 226 228 229 224 220 221 221 218 216 215 213 211 209 207 207
295 289 283 281 289 293 286 275 276 269 266 270 272 268 272 275 270 273 276 276 276 278 278 277 274 272 270 267 264 261 259 259 259 260 258 251 251 259 255 248 246 250 253 254 254 253 255 257 265 262 262 253 240 220 214 210 212 226 197 190 226 226 211 221 236 232 217 212 223 221 221 215 217 218 215 218 220 219 219 216 215 211 208 206 207
308 308 306 303 299 298 300 299 293 289 285 286 274 277 282 284 285 284 281 278 278 277 279 280 279 274 268 265 265 263 263 263 262 262 260 259 254 248 253 252 245 247 247 250 250 249 252 254 256 261 258 255 248 227 227 224 221 213 195 202 224 217 163 224 240 226 212 210 211 221 224 209 209 221 218 224 224 215 219 215 214 209 206 206 207
313 312 311 308 306 304 301 299 298 296 291 287 287 293 295 296 296 293 291 288 282 279 275 273 276 277 277 271 266 266 265 265 263 259 259 259 257 255 253 250 244 240 247 247 247 244 247 251 255 255 255 257 254 236 224 225 207 205 213 206 216 203 205 208 232 226 194 190 213 222 231 207 201 217 220 223 220 212 217 216 211 206 206 207 207
316 316 311 308 306 306 303 300 296 293 292 288 291 295 297 298 299 295 291 289 287 283 279 275 272 272 272 273 269 266 262 257 258 261 259 257 258 257 254 255 252 245 238 237 244 249 241 247 251 252 255 254 260 247 227 215 214 213 218 210 211 210 214 219 227 229 178 180 192 207 232 201 199 219 225 224 220 214 216 214 210 206 207 207 207
313 309 306 307 303 302 300 298 297 296 294 293 295 299 300 301 301 300 292 287 285 282 281 278 275 274 271 271 272 265 262 263 261 258 260 261 258 257 257 260 258 252 247 243 239 239 242 245 249 254 247 253 258 253 230 210 192 217 208 217 215 218 221 227 228 227 159 174 181 214 230 212 189 212 224 224 216 211 215 213 213 213 211 209 207
305 303 301 300 298 297 297 298 298 297 294 296 300 302 304 304 303 302 295 290 285 280 279 278 277 276 274 273 274 271 266 263 260 260 259 259 261 262 262 259 256 253 249 246 246 243 239 238 241 250 251 241 250 254 241 200 204 215 213 221 215 219 219 228 231 226 163 176 188 196 230 217 194 207 223 228 207 212 216 210 212 213 214 212 208
303 301 301 301 297 297 298 300 300 297 294 297 301 303 305 305 304 304 298 293 287 282 279 276 274 274 275 274 271 271 271 267 261 258 259 260 260 260 260 258 255 253 249 246 242 239 237 235 236 243 252 250 244 252 249 225 223 224 215 215 213 216 223 233 241 225 202 200 195 188 225 224 189 204 228 220 199 216 213 210 213 214 216 215 211
293 292 292 292 293 298 300 303 303 295 294 297 301 304 304 304 304 303 300 294 290 283 278 276 272 271 270 269 271 270 270 269 265 261 258 258 260 261 260 259 257 255 253 240 239 236 233 231 233 240 245 248 243 248 248 240 238 238 236 238 232 222 224 229 234 224 224 191 198 199 228 237 163 200 227 204 194 218 212 213 213 214 216 217 215
297 295 294 292 294 298 301 302 300 296 295 299 303 304 305 305 305 301 296 291 285 282 278 279 278 276 273 270 271 272 271 271 267 267 266 264 260 258 258 258 257 256 257 254 245 244 241 237 239 243 245 248 247 247 249 245 243 228 215 227 230 216 221 231 238 226 228 180 201 209 222 235 186 201 215 183 196 215 212 212 209 211 214 216 216
297 294 297 295 291 291 296 298 296 296 296 302 305 305 305 304 302 299 295 289 283 281 279 274 273 269 267 272 273 270 269 268 271 272 271 269 264 260 258 256 258 257 255 252 250 245 241 243 245 246 248 250 250 249 250 249 245 239 211 228 228 214 225 225 235 226 230 192 201 195 208 233 176 182 170 70 195 235 217 212 199 205 213 216 216
288 294 293 292 292 290 289 290 297 297 294 298 303 305 303 302 301 292 286 276 278 274 278 276 270 267 269 271 272 273 274 274 275 274 272 269 262 258 257 256 257 255 251 248 247 246 245 245 246 247 249 248 248 245 246 247 244 242 235 232 228 216 223 230 231 233 235 232 206 173 201 225 155 199 162 128 220 244 192 197 193 194 201 203 208